sat.trackr.live / text

‹ back to catalog

STARLINK-30474

NORAD 57897 · 2023-146G

PAYLOAD ACTIVE UNKNOWN

§ Identity

Operator
Country
US
Launch date
2023-09-20
Launch site
AFETR
Launch vehicle
Mass (kg)
RCS (m²)

Purposes: comms

External: N2YO · Heavens-Above · Gunter

§ Orbital elements

Epoch: 2026-09-19T19:19:37.608096Z

Period
94.27 min
Inclination
43.0030°
Eccentricity
0.0001411
Mean motion
15.27578749 rev/d
Perigee alt
482.1 km
Apogee alt
484.0 km
Semi-major
6,861.2 km
B*
-8.9434e-6
RAAN
297.9497°
Arg perigee
272.9913°
Mean anomaly
87.0777°
Rev number
16,674

§ Raw data

STARLINK-304741 57897U 23146G   26262.80529639 -.00000508  00000+0 -89434-5 0  99992 57897  43.0030 297.9497 0001411 272.9913  87.0777 15.27578749166740

JSON: /api/v1/satellites/57897 · /tle

For live sub-satellite position, see the globe view (requires WebGL).

§ Visibility from observer

Set your observer location to see the next 7 days of passes ≥ 10°. The values pass through the URL so the page stays shareable.

No JS? Fill the form by hand. The geolocation button needs JavaScript.